Dades meteomassalio
Diari Summary for Agost 9, 2017 Units:  English    Metric   Both
« Previous Day
Next Day »
Diari Semanal Mensual Anual Personalitzat
  Maxima: Minima: Mijana:
Temperatura: TemperatureC °F 15.7 °F 19.1 °F
Rosada: DewpointC °F 8.4 °F 9.6 °F
Humitat: Humidity % 45 % 54 %
Velocitat del vent: WindSpeedKMH mph 0.0 mph 12 mph
Racha vent: WindSpeedGustKMH mph - -
Vent:- - WNW
Pressio: PressurehPa in 1016.5 in -
Pluja: 0.8 in    
Historical Graphs
 
 
Tabular Data for Agost 9, 2017
Time Temperature Dew Point Pressure Wind Wind Speed Wind Gust Humidity Rainfall Rate (Hourly) solar Conditions
TemperatureC °F DewpointC °F PressurehPa in Calm     Humidity % HourlyPrecipMM in SolarRadiationWatts/m^2 W/m2 Conditions
00:01 20.7 °F 9.0 °F 1016.8 in West 14.8 mph 14.8 mph 47 % 0.0 in 0.0 W/m2 CLR
00:06 20.6 °F 8.9 °F 1016.8 in West 18.5 mph 18.5 mph 47 % 0.0 in 0.0 W/m2 CLR
00:11 20.5 °F 8.8 °F 1016.8 in WNW 18.5 mph 18.5 mph 47 % 0.0 in 0.0 W/m2 CLR
00:16 20.4 °F 8.7 °F 1016.8 in West 13.0 mph 13.0 mph 47 % 0.0 in 0.0 W/m2 CLR
00:21 20.3 °F 8.9 °F 1016.8 in West 18.5 mph 18.5 mph 48 % 0.0 in 0.0 W/m2 CLR
00:26 20.2 °F 8.8 °F 1016.8 in West 18.5 mph 18.5 mph 48 % 0.0 in 0.0 W/m2 CLR
00:31 20.2 °F 9.1 °F 1016.8 in WNW 20.9 mph 20.9 mph 49 % 0.0 in 0.0 W/m2 CLR
00:36 20.1 °F 9.1 °F 1016.8 in WNW 19.3 mph 19.3 mph 49 % 0.0 in 0.0 W/m2 CLR
00:41 20.0 °F 9.3 °F 1016.8 in WNW 22.2 mph 22.2 mph 50 % 0.0 in 0.0 W/m2 CLR
00:46 19.9 °F 9.2 °F 1017.2 in West 20.4 mph 20.4 mph 50 % 0.0 in 0.0 W/m2 CLR
00:51 19.8 °F 9.4 °F 1017.2 in West 22.2 mph 22.2 mph 51 % 0.0 in 0.0 W/m2 CLR
00:57 19.8 °F 9.3 °F 1017.2 in WNW 31.5 mph 31.5 mph 51 % 0.0 in 0.0 W/m2 CLR
01:02 19.7 °F 9.3 °F 1017.2 in West 22.2 mph 22.2 mph 51 % 0.0 in 0.0 W/m2 CLR
01:07 19.7 °F 9.2 °F 1017.2 in WNW 18.5 mph 18.5 mph 51 % 0.0 in 0.0 W/m2 CLR
01:12 19.7 °F 9.2 °F 1017.2 in WNW 18.5 mph 18.5 mph 51 % 0.0 in 0.0 W/m2 CLR
01:17 19.6 °F 9.2 °F 1017.2 in West 18.5 mph 18.5 mph 51 % 0.0 in 0.0 W/m2 CLR
01:22 19.6 °F 9.2 °F 1017.2 in West 18.5 mph 18.5 mph 51 % 0.0 in 0.0 W/m2 CLR
01:27 19.6 °F 9.4 °F 1017.2 in West 9.3 mph 9.3 mph 52 % 0.0 in 0.0 W/m2 CLR
01:32 19.5 °F 9.4 °F 1017.2 in WSW 7.4 mph   52 % 0.0 in 0.0 W/m2 CLR
01:37 19.4 °F 9.3 °F 1017.2 in Calm     52 % 0.0 in 0.0 W/m2 CLR
01:42 19.2 °F 9.4 °F 1017.2 in West 5.6 mph 6.3 mph 53 % 0.0 in 0.0 W/m2 CLR
01:47 19.1 °F 9.3 °F 1017.2 in Calm     53 % 0.0 in 0.0 W/m2 CLR
01:52 19.0 °F 9.5 °F 1017.2 in SW 5.6 mph 5.6 mph 54 % 0.0 in 0.0 W/m2 CLR
01:57 18.9 °F 9.4 °F 1017.2 in Calm     54 % 0.0 in 0.0 W/m2 CLR
02:02 18.8 °F 9.3 °F 1017.2 in SW 3.7 mph 3.7 mph 54 % 0.0 in 0.0 W/m2 CLR
02:07 18.6 °F 9.4 °F 1017.2 in Calm     55 % 0.0 in 0.0 W/m2 CLR
02:12 18.6 °F 9.3 °F 1017.2 in WSW 1.9 mph   55 % 0.0 in 0.0 W/m2 CLR
02:17 18.4 °F 9.5 °F 1017.2 in West 11.1 mph 11.1 mph 56 % 0.0 in 0.0 W/m2 CLR
02:22 18.6 °F 9.6 °F 1017.2 in West 14.8 mph 14.8 mph 56 % 0.0 in 0.0 W/m2 CLR
02:27 18.6 °F 9.7 °F 1017.2 in West 16.7 mph 16.7 mph 56 % 0.0 in 0.0 W/m2 CLR
02:32 18.6 °F 9.6 °F 1017.2 in WSW 11.3 mph 11.3 mph 56 % 0.0 in 0.0 W/m2 CLR
02:37 18.4 °F 9.5 °F 1017.2 in WSW 8.0 mph 8.0 mph 56 % 0.0 in 0.0 W/m2 CLR
02:42 18.3 °F 9.3 °F 1017.2 in West 5.6 mph 5.6 mph 56 % 0.0 in 0.0 W/m2 CLR
02:47 18.2 °F 9.2 °F 1017.2 in WSW 7.4 mph 7.4 mph 56 % 0.0 in 0.0 W/m2 CLR
02:52 18.2 °F 9.2 °F 1016.8 in Calm     56 % 0.0 in 0.0 W/m2 CLR
02:57 18.2 °F 9.3 °F 1016.8 in Calm     56 % 0.0 in 0.0 W/m2 CLR
03:02 18.2 °F 9.2 °F 1017.2 in Calm     56 % 0.0 in 0.0 W/m2 CLR
03:07 18.1 °F 9.2 °F 1016.8 in WSW 18.5 mph 18.5 mph 56 % 0.0 in 0.0 W/m2 CLR
03:12 18.1 °F 9.2 °F 1016.8 in West 14.8 mph 14.8 mph 56 % 0.0 in 0.0 W/m2 CLR
03:17 18.1 °F 9.1 °F 1017.2 in Calm     56 % 0.0 in 0.0 W/m2 CLR
03:22 18.0 °F 9.1 °F 1016.8 in WSW 9.3 mph 9.3 mph 56 % 0.0 in 0.0 W/m2 CLR
03:27 17.9 °F 9.1 °F 1016.8 in Calm     56 % 0.0 in 0.0 W/m2 CLR
03:32 17.8 °F 8.9 °F 1016.8 in Calm     56 % 0.0 in 0.0 W/m2 CLR
03:38 17.7 °F 8.8 °F 1016.8 in Calm     56 % 0.0 in 0.0 W/m2 CLR
03:43 17.7 °F 8.8 °F 1016.8 in WSW 5.6 mph 5.6 mph 56 % 0.0 in 0.0 W/m2 CLR
03:48 17.6 °F 8.7 °F 1016.8 in West 6.4 mph   56 % 0.0 in 0.0 W/m2 CLR
03:53 17.6 °F 8.7 °F 1016.8 in Calm     56 % 0.0 in 0.0 W/m2 CLR
03:58 17.6 °F 8.7 °F 1016.8 in Calm   1.0 mph 56 % 0.0 in 0.0 W/m2 CLR
04:03 17.5 °F 8.6 °F 1016.8 in Calm     56 % 0.0 in 0.0 W/m2 CLR
04:08 17.4 °F 8.8 °F 1016.8 in Calm     57 % 0.0 in 0.0 W/m2 CLR
04:13 17.4 °F 8.8 °F 1016.8 in Calm     57 % 0.0 in 0.0 W/m2 CLR
04:18 17.2 °F 8.6 °F 1016.8 in Calm     57 % 0.0 in 0.0 W/m2 CLR
04:23 17.1 °F 8.7 °F 1016.8 in Calm   1.3 mph 58 % 0.0 in 0.0 W/m2 CLR
04:28 17.1 °F 8.8 °F 1016.8 in WSW 3.7 mph   58 % 0.0 in 0.0 W/m2 CLR
04:33 17.2 °F 8.8 °F 1016.5 in Calm     58 % 0.0 in 0.0 W/m2 CLR
04:38 17.2 °F 8.8 °F 1016.8 in Calm     58 % 0.0 in 0.0 W/m2 CLR
04:43 17.1 °F 8.7 °F 1016.8 in Calm     58 % 0.0 in 0.0 W/m2 CLR
04:48 16.9 °F 8.6 °F 1016.8 in Calm     58 % 0.0 in 0.0 W/m2 CLR
04:54 16.8 °F 8.7 °F 1016.8 in Calm     59 % 0.0 in 0.0 W/m2 CLR
04:59 16.6 °F 8.6 °F 1016.8 in Calm     59 % 0.0 in 0.0 W/m2 CLR
05:04 16.6 °F 8.5 °F 1016.8 in Calm     59 % 0.0 in 0.0 W/m2 CLR
05:09 16.4 °F 8.7 °F 1016.8 in Calm     60 % 0.0 in 0.0 W/m2 CLR
05:16 16.4 °F 8.8 °F 1016.8 in Calm     61 % 0.0 in 0.0 W/m2 CLR
05:18 16.4 °F 8.6 °F 1016.8 in Calm     60 % 0.0 in 0.0 W/m2 CLR
05:21 16.3 °F 8.8 °F 1016.8 in Calm     61 % 0.0 in 0.0 W/m2 CLR
05:22 16.3 °F 8.8 °F 1016.8 in Calm     61 % 0.0 in 0.0 W/m2 CLR
05:27 16.2 °F 8.7 °F 1016.8 in Calm     61 % 0.0 in 0.0 W/m2 CLR
05:32 16.2 °F 8.6 °F 1016.8 in Calm     61 % 0.0 in 0.0 W/m2 CLR
05:37 16.1 °F 8.6 °F 1016.8 in Calm     61 % 0.0 in 0.0 W/m2 CLR
05:42 16.1 °F 8.6 °F 1016.8 in Calm     61 % 0.0 in 0.0 W/m2 CLR
05:47 15.9 °F 8.7 °F 1016.8 in Calm     62 % 0.0 in 0.0 W/m2 CLR
05:52 15.8 °F 8.5 °F 1016.8 in Calm     62 % 0.0 in 0.0 W/m2 CLR
05:57 15.8 °F 8.5 °F 1016.5 in Calm     62 % 0.0 in 0.0 W/m2 CLR
06:02 15.8 °F 9.1 °F 1016.5 in Calm     64 % 0.0 in 0.0 W/m2 CLR
06:07 15.8 °F 9.1 °F 1016.5 in Calm     64 % 0.0 in 0.0 W/m2 CLR
06:12 15.8 °F 9.0 °F 1016.8 in Calm     64 % 0.0 in 0.0 W/m2 CLR
06:17 15.7 °F 8.9 °F 1016.5 in Calm     64 % 0.0 in 0.0 W/m2 CLR
06:22 15.7 °F 8.9 °F 1016.8 in Calm     64 % 0.0 in 0.0 W/m2 CLR
06:27 15.7 °F 8.9 °F 1016.5 in Calm     64 % 0.0 in 0.0 W/m2 CLR
06:32 15.8 °F 9.1 °F 1016.5 in Calm     64 % 0.0 in 0.0 W/m2 CLR
06:37 15.9 °F 9.1 °F 1016.8 in Calm     64 % 0.0 in 0.0 W/m2 CLR
06:42 15.9 °F 9.1 °F 1016.5 in Calm     64 % 0.0 in 0.0 W/m2 CLR
06:47 15.9 °F 8.8 °F 1016.5 in Calm     63 % 0.0 in 0.0 W/m2 CLR
06:52 15.9 °F 8.9 °F 1016.5 in Calm     63 % 0.0 in 0.0 W/m2 CLR
06:57 16.0 °F 8.9 °F 1016.5 in Calm     63 % 0.0 in 0.0 W/m2 CLR
07:02 16.1 °F 9.0 °F 1016.5 in Calm     63 % 0.0 in 0.0 W/m2 OVC
07:07 16.2 °F 9.3 °F 1016.8 in Calm     64 % 0.0 in 0.0 W/m2 OVC
07:12 16.2 °F 9.3 °F 1016.5 in Calm     64 % 0.0 in 0.0 W/m2 OVC
07:17 16.2 °F 9.2 °F 1016.5 in Calm     63 % 0.0 in 7.0 W/m2 BKN
07:22 16.2 °F 9.2 °F 1016.8 in Calm     63 % 0.0 in 9.0 W/m2 BKN
07:27 16.3 °F 9.3 °F 1016.8 in Calm     63 % 0.0 in 12.0 W/m2 BKN
07:32 16.3 °F 9.1 °F 1016.8 in Calm     62 % 0.0 in 21.0 W/m2 BKN
07:37 16.4 °F 9.1 °F 1016.8 in Calm     62 % 0.0 in 26.0 W/m2 BKN
07:42 16.6 °F 9.2 °F 1016.8 in Calm     62 % 0.0 in 33.0 W/m2 BKN
07:47 16.7 °F 9.4 °F 1016.8 in Calm     62 % 0.0 in 35.0 W/m2 BKN
07:48 16.7 °F 9.4 °F 1016.8 in Calm     62 % 0.0 in 37.0 W/m2 BKN
07:53 16.9 °F 9.4 °F 1016.8 in Calm     61 % 0.0 in 39.0 W/m2 BKN
07:58 17.1 °F 9.3 °F 1016.8 in WNW 5.6 mph 5.6 mph 60 % 0.0 in 49.0 W/m2 SCT
08:03 17.2 °F 9.4 °F 1016.8 in WNW 3.7 mph 3.7 mph 60 % 0.0 in 53.0 W/m2 SCT
08:08 17.3 °F 9.4 °F 1016.8 in WNW 3.7 mph 3.7 mph 60 % 0.0 in 58.0 W/m2 SCT
08:13 17.3 °F 9.2 °F 1016.8 in NW 5.6 mph 5.6 mph 59 % 0.0 in 69.0 W/m2 SCT
08:18 17.3 °F 9.2 °F 1016.8 in WNW 5.6 mph 5.6 mph 59 % 0.0 in 79.0 W/m2 FEW
08:23 17.3 °F 9.2 °F 1016.8 in West 5.6 mph 5.6 mph 59 % 0.0 in 100.0 W/m2 FEW
08:28 17.4 °F 9.3 °F 1016.8 in West 5.6 mph 5.6 mph 59 % 0.0 in 111.0 W/m2 CLR
08:33 17.4 °F 9.3 °F 1016.8 in Calm     59 % 0.0 in 114.0 W/m2 CLR
08:38 17.6 °F 9.4 °F 1016.8 in West 9.3 mph 9.3 mph 59 % 0.0 in 109.0 W/m2 CLR
08:43 17.6 °F 9.4 °F 1016.8 in West 5.6 mph 5.6 mph 59 % 0.0 in 120.0 W/m2 CLR
08:48 17.7 °F 9.3 °F 1016.8 in WNW 9.7 mph 9.7 mph 58 % 0.0 in 130.0 W/m2 CLR
08:53 17.7 °F 9.6 °F 1016.8 in WNW 7.4 mph 7.4 mph 59 % 0.0 in 153.0 W/m2 CLR
08:58 17.9 °F 9.5 °F 1016.8 in West 9.3 mph 9.3 mph 58 % 0.0 in 158.0 W/m2 CLR
09:03 18.0 °F 9.6 °F 1017.2 in West 7.4 mph 7.4 mph 58 % 0.0 in 195.0 W/m2 CLR
09:08 18.2 °F 9.5 °F 1016.8 in West 5.6 mph 5.6 mph 57 % 0.0 in 234.0 W/m2 CLR
09:13 18.2 °F 9.6 °F 1017.2 in NW 14.8 mph 14.8 mph 57 % 0.0 in 202.0 W/m2 CLR
09:18 18.2 °F 9.5 °F 1017.2 in WNW 18.5 mph 18.5 mph 57 % 0.0 in 320.0 W/m2 CLR
09:23 18.1 °F 9.7 °F 1017.2 in NW 19.3 mph 19.3 mph 58 % 0.0 in 239.0 W/m2 CLR
09:28 18.1 °F 9.7 °F 1017.2 in WNW 17.7 mph 17.7 mph 58 % 0.0 in 221.0 W/m2 CLR
09:33 18.2 °F 9.8 °F 1017.2 in WNW 14.8 mph 14.8 mph 58 % 0.0 in 216.0 W/m2 CLR
09:38 18.2 °F 9.6 °F 1017.2 in NW 14.8 mph 14.8 mph 57 % 0.0 in 190.0 W/m2 CLR
09:43 18.3 °F 9.9 °F 1017.2 in WNW 11.1 mph 11.1 mph 58 % 0.0 in 260.0 W/m2 CLR
09:48 18.4 °F 9.7 °F 1017.2 in Calm     57 % 0.0 in 253.0 W/m2 CLR
09:53 18.6 °F 9.9 °F 1017.2 in WNW 13.0 mph 13.0 mph 57 % 0.0 in 206.0 W/m2 CLR
09:58 18.5 °F 9.6 °F 1017.2 in NW 18.5 mph 18.5 mph 56 % 0.0 in 207.0 W/m2 CLR
10:03 18.4 °F 9.8 °F 1017.2 in NW 18.5 mph 18.5 mph 57 % 0.0 in 197.0 W/m2 CLR
10:08 18.5 °F 9.8 °F 1017.2 in NW 18.5 mph 18.5 mph 57 % 0.0 in 220.0 W/m2 CLR
10:13 18.6 °F 9.6 °F 1017.2 in Calm     56 % 0.0 in 206.0 W/m2 CLR
10:18 18.6 °F 9.6 °F 1017.2 in NW 13.0 mph 13.0 mph 56 % 0.0 in 230.0 W/m2 CLR
10:23 18.6 °F 9.7 °F 1017.2 in WNW 14.8 mph 14.8 mph 56 % 0.0 in 213.0 W/m2 CLR
10:28 18.7 °F 9.8 °F 1017.2 in West 16.7 mph 16.7 mph 56 % 0.0 in 213.0 W/m2 CLR
10:33 18.8 °F 9.8 °F 1017.5 in NW 18.5 mph 18.5 mph 56 % 0.0 in 269.0 W/m2 CLR
10:38 19.0 °F 10.0 °F 1017.5 in WNW 16.7 mph 16.7 mph 56 % 0.0 in 302.0 W/m2 CLR
10:43 19.1 °F 9.8 °F 1017.5 in WNW 9.3 mph 9.3 mph 55 % 0.0 in 427.0 W/m2 CLR
10:48 19.1 °F 9.8 °F 1017.2 in West 3.7 mph   55 % 0.0 in 283.0 W/m2 CLR
10:53 19.1 °F 10.1 °F 1017.5 in WNW 20.4 mph 20.4 mph 56 % 0.0 in 265.0 W/m2 CLR
10:58 19.4 °F 9.9 °F 1017.5 in NW 16.1 mph 16.1 mph 54 % 0.0 in 323.0 W/m2 CLR
11:03 19.4 °F 9.6 °F 1017.5 in WNW 14.8 mph 14.8 mph 53 % 0.0 in 385.0 W/m2 CLR
11:08 19.5 °F 9.9 °F 1017.5 in WNW 16.7 mph 16.7 mph 54 % 0.0 in 241.0 W/m2 CLR
11:13 19.5 °F 9.9 °F 1017.2 in NW 6.4 mph 6.4 mph 54 % 0.0 in 290.0 W/m2 CLR
11:18 19.7 °F 10.1 °F 1017.2 in WNW 13.0 mph 13.0 mph 54 % 0.0 in 283.0 W/m2 CLR
11:23 19.9 °F 10.0 °F 1017.2 in NW 16.7 mph 16.7 mph 53 % 0.0 in 492.0 W/m2 CLR
11:28 20.0 °F 9.8 °F 1017.2 in NNW 14.8 mph 14.8 mph 52 % 0.0 in 225.0 W/m2 CLR
11:33 20.0 °F 9.8 °F 1017.2 in NW 16.7 mph 16.7 mph 52 % 0.0 in 134.0 W/m2 CLR
11:38 19.9 °F 10.0 °F 1017.5 in NW 13.0 mph 13.0 mph 53 % 0.0 in 107.0 W/m2 CLR
11:43 19.8 °F 9.9 °F 1017.2 in WNW 14.8 mph 14.8 mph 53 % 0.0 in 181.0 W/m2 CLR
11:48 19.7 °F 9.8 °F 1017.2 in WNW 11.3 mph 11.3 mph 53 % 0.0 in 318.0 W/m2 CLR
11:53 19.8 °F 9.9 °F 1017.2 in NW 1.9 mph   53 % 0.0 in 345.0 W/m2 CLR
11:58 20.1 °F 10.2 °F 1017.2 in Calm     53 % 0.0 in 308.0 W/m2 CLR
12:03 20.2 °F 10.0 °F 1017.2 in WNW 5.6 mph 5.6 mph 52 % 0.0 in 243.0 W/m2 CLR
12:08 20.1 °F 9.9 °F 1017.2 in Calm     52 % 0.0 in 220.0 W/m2 CLR
12:13 20.1 °F 9.9 °F 1017.2 in West 3.7 mph 3.7 mph 52 % 0.0 in 214.0 W/m2 CLR
12:18 20.0 °F 9.8 °F 1017.2 in West 3.7 mph   52 % 0.0 in 183.0 W/m2 CLR
12:23 20.0 °F 9.8 °F 1017.2 in Calm     52 % 0.0 in 181.0 W/m2 CLR
12:28 20.1 °F 9.9 °F 1017.2 in Calm     52 % 0.0 in 251.0 W/m2 CLR
12:33 20.3 °F 9.8 °F 1017.2 in NW 13.0 mph 13.0 mph 51 % 0.0 in 411.0 W/m2 CLR
12:38 20.5 °F 10.0 °F 1017.2 in WNW 5.6 mph 5.6 mph 51 % 0.0 in 229.0 W/m2 CLR
12:43 20.5 °F 10.0 °F 1017.2 in NNW 18.5 mph 18.5 mph 51 % 0.0 in 199.0 W/m2 CLR
12:48 20.5 °F 10.0 °F 1017.2 in NNW 20.4 mph 20.4 mph 51 % 0.0 in 241.0 W/m2 CLR
12:53 20.4 °F 9.9 °F 1017.5 in Calm     51 % 0.0 in 209.0 W/m2 CLR
12:58 20.5 °F 10.0 °F 1017.5 in WNW 13.0 mph 13.0 mph 51 % 0.0 in 216.0 W/m2 CLR
13:03 20.6 °F 10.1 °F 1017.5 in NW 14.8 mph 14.8 mph 51 % 0.0 in 213.0 W/m2 CLR
13:08 20.6 °F 10.1 °F 1017.5 in NW 7.4 mph   51 % 0.0 in 225.0 W/m2 CLR
13:13 20.6 °F 10.4 °F 1017.5 in NW 11.1 mph 11.1 mph 52 % 0.0 in 374.0 W/m2 CLR
13:18 20.9 °F 10.4 °F 1017.2 in NW 12.9 mph 12.9 mph 51 % 0.0 in 494.0 W/m2 CLR
13:23 21.3 °F 10.2 °F 1017.2 in North 14.8 mph 14.8 mph 49 % 0.0 in 497.0 W/m2 CLR
13:28 21.3 °F 10.5 °F 1017.2 in NW 11.1 mph 11.1 mph 50 % 0.0 in 469.0 W/m2 CLR
13:29 21.3 °F 10.5 °F 1017.2 in WNW 16.7 mph 16.7 mph 50 % 0.0 in 469.0 W/m2 CLR
13:34 21.3 °F 10.4 °F 1017.2 in NW 5.6 mph 5.6 mph 50 % 0.0 in 237.0 W/m2 CLR
13:39 21.3 °F 10.4 °F 1016.8 in Calm   0.2 mph 50 % 0.0 in 364.0 W/m2 CLR
13:44 21.7 °F 10.8 °F 1016.8 in WNW 12.9 mph 12.9 mph 50 % 0.0 in 1093.0 W/m2 CLR
13:49 22.0 °F 10.5 °F 1016.8 in West 14.5 mph 14.5 mph 48 % 0.0 in 397.0 W/m2 CLR
13:54 21.9 °F 10.1 °F 1016.8 in NNW 16.7 mph 16.7 mph 47 % 0.0 in 874.0 W/m2 CLR
13:59 21.9 °F 10.4 °F 1016.8 in Calm     48 % 0.0 in 403.0 W/m2 CLR
14:04 22.0 °F 10.5 °F 1016.8 in NNW 16.7 mph 16.7 mph 48 % 0.0 in 424.0 W/m2 CLR
14:09 22.2 °F 11.0 °F 1016.8 in WNW 16.7 mph 16.7 mph 49 % 0.0 in 1121.0 W/m2 CLR
14:14 22.9 °F 11.0 °F 1016.8 in WNW 18.5 mph 18.5 mph 47 % 0.0 in 1090.0 W/m2 CLR
14:19 23.1 °F 11.1 °F 1016.5 in NW 14.5 mph 14.5 mph 47 % 0.0 in 1060.0 W/m2 CLR
14:24 23.1 °F 10.8 °F 1016.5 in NNW 3.7 mph 3.7 mph 46 % 0.0 in 390.0 W/m2 CLR
14:29 22.9 °F 11.0 °F 1016.5 in NW 8.0 mph 8.0 mph 47 % 0.0 in 598.0 W/m2 CLR
14:34 23.0 °F 11.1 °F 1016.5 in Calm     47 % 0.0 in 954.0 W/m2 CLR
14:39 23.1 °F 10.8 °F 1016.5 in Calm     46 % 0.0 in 214.0 W/m2 CLR
14:44 23.0 °F 10.8 °F 1016.5 in WNW 20.4 mph 20.4 mph 46 % 0.0 in 367.0 W/m2 CLR
14:49 22.9 °F 10.7 °F 1016.5 in NNW 16.7 mph 16.7 mph 46 % 0.0 in 396.0 W/m2 CLR
14:54 23.2 °F 10.9 °F 1016.5 in NW 16.7 mph 16.7 mph 46 % 0.0 in 396.0 W/m2 CLR
14:59 23.4 °F 11.1 °F 1016.5 in WNW 5.6 mph 5.6 mph 46 % 0.0 in 529.0 W/m2 CLR
15:04 23.4 °F 10.8 °F 1016.5 in Calm     45 % 0.0 in 271.0 W/m2 CLR
15:09 23.3 °F 10.7 °F 1016.5 in NNW 20.4 mph 20.4 mph 45 % 0.0 in 241.0 W/m2 CLR
15:14 23.2 °F 10.6 °F 1016.5 in NNW 14.8 mph 14.8 mph 45 % 0.0 in 223.0 W/m2 CLR
15:19 23.0 °F 10.4 °F 1016.8 in NW 14.8 mph 14.8 mph 45 % 0.0 in 167.0 W/m2 CLR
15:24 22.8 °F 10.6 °F 1016.8 in NNW 13.0 mph 13.0 mph 46 % 0.0 in 158.0 W/m2 CLR
15:29 22.7 °F 10.5 °F 1016.8 in Calm     46 % 0.0 in 162.0 W/m2 CLR
15:34 22.6 °F 10.4 °F 1016.8 in West 5.6 mph 5.6 mph 46 % 0.0 in 239.0 W/m2 CLR
15:39 22.6 °F 10.4 °F 1016.8 in Calm     46 % 0.0 in 199.0 W/m2 CLR
15:44 22.6 °F 10.4 °F 1016.8 in NW 1.6 mph 2.4 mph 46 % 0.0 in 141.0 W/m2 CLR
15:49 22.6 °F 10.3 °F 1016.8 in NW 6.4 mph 6.4 mph 46 % 0.0 in 121.0 W/m2 CLR
15:54 22.4 °F 10.2 °F 1016.8 in WNW 5.6 mph 5.6 mph 46 % 0.0 in 137.0 W/m2 CLR
15:59 22.3 °F 10.2 °F 1016.5 in Calm     46 % 0.0 in 204.0 W/m2 CLR
16:04 22.5 °F 10.3 °F 1016.5 in Calm     46 % 0.0 in 209.0 W/m2 CLR
16:09 22.6 °F 10.4 °F 1016.5 in WNW 5.6 mph 5.6 mph 46 % 0.0 in 193.0 W/m2 CLR
16:14 22.6 °F 10.3 °F 1016.5 in Calm     46 % 0.0 in 227.0 W/m2 CLR
16:15 22.6 °F 10.3 °F 1016.5 in Calm     46 % 0.0 in 227.0 W/m2 CLR
16:20 22.6 °F 10.1 °F 1016.5 in Calm     45 % 0.0 in 230.0 W/m2 CLR
16:25 22.7 °F 10.5 °F 1016.5 in North 3.7 mph   46 % 0.0 in 207.0 W/m2 CLR
16:30 22.8 °F 10.2 °F 1016.5 in Calm     45 % 0.0 in 128.0 W/m2 CLR
16:35 22.9 °F 10.4 °F 1016.5 in Calm     45 % 0.0 in 104.0 W/m2 CLR
16:40 22.9 °F 10.3 °F 1016.5 in SW 4.8 mph 4.8 mph 45 % 0.0 in 91.0 W/m2 CLR
16:45 22.8 °F 10.2 °F 1016.5 in West 9.7 mph 9.7 mph 45 % 0.0 in 88.0 W/m2 CLR
16:50 22.8 °F 10.2 °F 1016.5 in NW 13.0 mph 13.0 mph 45 % 0.0 in 88.0 W/m2 CLR
16:55 22.8 °F 10.3 °F 1016.5 in NNW 9.3 mph 9.3 mph 45 % 0.0 in 67.0 W/m2 FEW
17:00 22.8 °F 10.2 °F 1016.5 in WNW 5.6 mph 5.6 mph 45 % 0.0 in 63.0 W/m2 FEW
17:05 22.8 °F 10.3 °F 1016.5 in NNW 11.1 mph 11.1 mph 45 % 0.0 in 60.0 W/m2 SCT
17:10 22.8 °F 10.2 °F 1016.8 in NNW 19.3 mph 19.3 mph 45 % 0.0 in 54.0 W/m2 SCT
17:15 22.7 °F 10.2 °F 1016.8 in NNW 16.7 mph 16.7 mph 45 % 0.0 in 53.0 W/m2 SCT
17:20 22.5 °F 10.3 °F 1016.8 in NNW 24.1 mph 24.1 mph 46 % 0.0 in 76.0 W/m2 SCT
17:25 22.3 °F 10.2 °F 1016.8 in North 24.1 mph 24.1 mph 46 % 0.0 in 220.0 W/m2 FEW
17:30 22.3 °F 10.4 °F 1016.8 in NNW 22.2 mph 22.2 mph 47 % 0.0 in 158.0 W/m2 CLR
17:35 22.4 °F 10.6 °F 1016.8 in North 27.4 mph 27.4 mph 47 % 0.0 in 134.0 W/m2 CLR
17:40 22.2 °F 10.7 °F 1017.2 in NNW 29.6 mph 29.6 mph 48 % 0.0 in 160.0 W/m2 CLR
17:45 22.1 °F 10.6 °F 1017.2 in NNW 24.1 mph 24.1 mph 48 % 0.0 in 178.0 W/m2 CLR
17:50 21.9 °F 10.4 °F 1017.2 in North 20.4 mph 20.4 mph 48 % 0.0 in 165.0 W/m2 CLR
17:55 21.9 °F 10.7 °F 1017.2 in NW 18.5 mph 18.5 mph 49 % 0.0 in 149.0 W/m2 CLR
18:00 21.9 °F 10.4 °F 1017.2 in NW 29.6 mph 29.6 mph 48 % 0.0 in 148.0 W/m2 CLR
18:01 21.9 °F 10.4 °F 1017.2 in NNW 29.6 mph 29.6 mph 48 % 0.0 in 128.0 W/m2 CLR
18:06 21.8 °F 10.3 °F 1017.2 in NNW 20.4 mph 20.4 mph 48 % 0.0 in 105.0 W/m2 CLR
18:11 21.7 °F 10.2 °F 1017.2 in North 29.6 mph 29.6 mph 48 % 0.0 in 83.0 W/m2 CLR
18:16 21.5 °F 10.0 °F 1017.2 in NNW 29.6 mph 29.6 mph 48 % 0.0 in 95.0 W/m2 CLR
18:21 21.3 °F 10.2 °F 1017.2 in NW 29.6 mph 29.6 mph 49 % 0.0 in 79.0 W/m2 CLR
18:26 21.2 °F 10.1 °F 1017.2 in NNW 29.6 mph 29.6 mph 49 % 0.0 in 90.0 W/m2 CLR
18:31 21.2 °F 10.1 °F 1017.2 in NNW 18.5 mph 18.5 mph 49 % 0.0 in 84.0 W/m2 FEW
18:36 21.3 °F 10.2 °F 1017.5 in NW 20.9 mph 20.9 mph 49 % 0.0 in 93.0 W/m2 CLR
18:41 21.1 °F 10.3 °F 1017.5 in North 32.2 mph 32.2 mph 50 % 0.0 in 72.0 W/m2 CLR
18:46 20.8 °F 10.6 °F 1017.5 in NNW 25.9 mph 25.9 mph 52 % 0.0 in 49.0 W/m2 FEW
18:51 20.6 °F 10.4 °F 1017.5 in NNW 33.8 mph 33.8 mph 52 % 0.0 in 37.0 W/m2 SCT
18:56 20.4 °F 10.2 °F 1017.8 in NNW 33.3 mph 33.3 mph 52 % 0.0 in 33.0 W/m2 BKN
19:01 20.3 °F 10.2 °F 1017.8 in NW 33.8 mph 33.8 mph 52 % 0.0 in 32.0 W/m2 BKN
19:06 20.2 °F 10.3 °F 1017.8 in NW 29.6 mph 29.6 mph 53 % 0.0 in 33.0 W/m2 BKN
19:11 20.2 °F 10.3 °F 1017.8 in North 29.6 mph 29.6 mph 53 % 0.0 in 35.0 W/m2 BKN
19:16 20.0 °F 10.4 °F 1017.8 in WNW 31.5 mph 31.5 mph 54 % 0.0 in 37.0 W/m2 BKN
19:21 19.8 °F 10.2 °F 1018.2 in NNW 31.5 mph 31.5 mph 54 % 0.0 in 53.0 W/m2 BKN
19:26 19.6 °F 10.3 °F 1018.5 in NNW 27.8 mph 27.8 mph 55 % 0.0 in 37.0 W/m2 SCT
19:28 19.6 °F 10.3 °F 1018.5 in NW 37.0 mph 37.0 mph 55 % 0.0 in 39.0 W/m2 SCT
19:33 19.3 °F 10.6 °F 1018.5 in NW 38.9 mph 38.9 mph 57 % 0.0 in 26.0 W/m2 BKN
19:38 19.1 °F 10.6 °F 1018.5 in NNW 25.9 mph 25.9 mph 58 % 0.0 in 14.0 W/m2 BKN
19:43 18.8 °F 10.4 °F 1018.5 in NW 31.5 mph 31.5 mph 58 % 0.0 in 25.0 W/m2 BKN
19:48 18.6 °F 10.4 °F 1018.5 in North 25.9 mph 25.9 mph 59 % 0.0 in 19.0 W/m2 BKN
19:53 18.6 °F 10.4 °F 1018.5 in NNE 18.5 mph 18.5 mph 59 % 0.0 in 14.0 W/m2 BKN
19:58 18.4 °F 10.3 °F 1018.5 in NNW 25.9 mph 25.9 mph 59 % 0.0 in 11.0 W/m2 BKN
20:03 18.4 °F 10.2 °F 1018.5 in NNW 18.5 mph 18.5 mph 59 % 0.0 in 11.0 W/m2 BKN
20:08 18.4 °F 10.2 °F 1018.8 in NNW 27.8 mph 27.8 mph 59 % 0.0 in 11.0 W/m2 BKN
20:13 18.3 °F 10.6 °F 1018.8 in NNW 25.9 mph 25.9 mph 61 % 0.0 in 7.0 W/m2 BKN
20:18 18.1 °F 10.7 °F 1019.2 in NNW 22.2 mph 22.2 mph 62 % 0.0 in 5.0 W/m2 OVC
20:23 18.1 °F 10.4 °F 1018.8 in NNW 20.4 mph 20.4 mph 61 % 0.0 in 5.0 W/m2 OVC
20:28 18.1 °F 10.4 °F 1019.2 in NW 27.8 mph 27.8 mph 61 % 0.0 in 5.0 W/m2 OVC
20:33 18.1 °F 10.2 °F 1019.2 in NW 31.5 mph 31.5 mph 60 % 0.0 in 5.0 W/m2 OVC
20:38 18.1 °F 10.2 °F 1019.2 in NW 27.8 mph 27.8 mph 60 % 0.0 in 5.0 W/m2 OVC
20:43 18.1 °F 10.2 °F 1019.2 in WNW 27.8 mph 27.8 mph 60 % 0.0 in 5.0 W/m2 OVC
20:48 18.1 °F 10.2 °F 1019.2 in WNW 20.4 mph 20.4 mph 60 % 0.0 in 0.0 W/m2 OVC
20:53 18.1 °F 10.2 °F 1019.2 in WNW 20.4 mph 20.4 mph 60 % 0.0 in 0.0 W/m2 OVC
20:59 18.1 °F 9.9 °F 1019.2 in NW 22.2 mph 22.2 mph 59 % 0.0 in 0.0 W/m2 OVC
21:04 18.1 °F 9.9 °F 1019.2 in WNW 20.4 mph 20.4 mph 59 % 0.0 in 0.0 W/m2 OVC
21:09 18.1 °F 9.7 °F 1019.2 in WNW 18.5 mph 18.5 mph 58 % 0.0 in 0.0 W/m2 OVC
21:14 18.2 °F 9.8 °F 1019.2 in WNW 18.5 mph 18.5 mph 58 % 0.0 in 0.0 W/m2 OVC
21:19 18.2 °F 9.6 °F 1019.2 in West 18.5 mph 18.5 mph 57 % 0.0 in 0.0 W/m2 CLR
21:24 18.3 °F 9.6 °F 1019.2 in WNW 22.2 mph 22.2 mph 57 % 0.0 in 0.0 W/m2 CLR
21:29 18.4 °F 9.4 °F 1019.5 in WNW 20.4 mph 20.4 mph 56 % 0.0 in 0.0 W/m2 CLR
21:34 18.4 °F 9.4 °F 1019.5 in WNW 18.5 mph 18.5 mph 56 % 0.0 in 0.0 W/m2 CLR
21:39 18.4 °F 9.2 °F 1019.5 in WNW 20.4 mph 20.4 mph 55 % 0.0 in 0.0 W/m2 CLR
21:44 18.4 °F 9.2 °F 1019.9 in WNW 20.4 mph 20.4 mph 55 % 0.0 in 0.0 W/m2 CLR
21:49 18.4 °F 9.2 °F 1019.5 in WNW 18.5 mph 18.5 mph 55 % 0.0 in 0.0 W/m2 CLR
21:54 18.4 °F 9.2 °F 1019.9 in NW 19.3 mph 19.3 mph 55 % 0.0 in 0.0 W/m2 CLR
21:59 18.4 °F 8.9 °F 1020.2 in WNW 25.9 mph 25.9 mph 54 % 0.0 in 0.0 W/m2 CLR
22:04 18.3 °F 8.8 °F 1020.2 in WNW 20.9 mph 20.9 mph 54 % 0.0 in 0.0 W/m2 CLR
22:09 18.3 °F 9.1 °F 1020.2 in NW 18.5 mph 18.5 mph 55 % 0.0 in 0.0 W/m2 CLR
22:14 18.2 °F 9.0 °F 1020.2 in WNW 18.5 mph 18.5 mph 55 % 0.0 in 0.0 W/m2 CLR
22:19 18.2 °F 9.2 °F 1020.5 in West 16.7 mph 16.7 mph 56 % 0.0 in 0.0 W/m2 CLR
22:24 18.2 °F 9.0 °F 1020.5 in WNW 12.9 mph 12.9 mph 55 % 0.0 in 0.0 W/m2 CLR
22:29 18.2 °F 9.0 °F 1020.5 in West 16.7 mph 16.7 mph 55 % 0.0 in 0.0 W/m2 CLR
22:34 18.3 °F 8.8 °F 1020.5 in West 16.7 mph 16.7 mph 54 % 0.0 in 0.0 W/m2 CLR
22:39 18.4 °F 8.9 °F 1020.5 in West 16.7 mph 16.7 mph 54 % 0.0 in 0.0 W/m2 CLR
22:44 18.4 °F 8.6 °F 1020.9 in WNW 16.7 mph 16.7 mph 53 % 0.0 in 0.0 W/m2 CLR
22:49 18.4 °F 8.6 °F 1020.9 in WNW 24.1 mph 24.1 mph 53 % 0.0 in 0.0 W/m2 CLR
22:54 18.4 °F 8.6 °F 1021.2 in NW 27.8 mph 27.8 mph 53 % 0.0 in 0.0 W/m2 CLR
22:59 18.4 °F 8.6 °F 1021.2 in NW 18.5 mph 18.5 mph 53 % 0.0 in 0.0 W/m2 CLR
23:04 18.3 °F 8.6 °F 1021.2 in NW 22.2 mph 22.2 mph 53 % 0.0 in 0.0 W/m2 CLR
23:09 18.3 °F 8.6 °F 1021.2 in NW 22.2 mph 22.2 mph 53 % 0.0 in 0.0 W/m2 CLR
23:14 18.3 °F 8.6 °F 1021.6 in NW 25.7 mph 25.7 mph 53 % 0.0 in 0.0 W/m2 CLR
23:19 18.2 °F 8.4 °F 1021.6 in NW 20.4 mph 20.4 mph 53 % 0.0 in 0.0 W/m2 CLR
23:24 18.0 °F 8.8 °F 1021.6 in NW 31.5 mph 31.5 mph 55 % 0.0 in 0.0 W/m2 CLR
23:29 17.2 °F 10.3 °F 1021.6 in NNW 25.7 mph 25.7 mph 64 % 0.3 in 0.0 W/m2 RA
23:34 16.2 °F 10.9 °F 1021.6 in West 16.7 mph 16.7 mph 71 % 0.8 in 0.0 W/m2 RA
23:39 15.8 °F 10.7 °F 1021.6 in NW 13.0 mph 13.0 mph 72 % 0.8 in 0.0 W/m2
23:44 15.7 °F 10.5 °F 1021.6 in WNW 18.5 mph 18.5 mph 71 % 0.8 in 0.0 W/m2 CLR
23:49 15.8 °F 10.7 °F 1021.6 in WNW 14.8 mph 14.8 mph 72 % 0.8 in 0.0 W/m2 CLR
23:54 15.8 °F 10.2 °F 1021.6 in NW 20.4 mph 20.4 mph 69 % 0.8 in 0.0 W/m2 CLR
23:59 15.9 °F 10.1 °F 1021.6 in WNW 16.7 mph 16.7 mph 68 % 0.8 in 0.0 W/m2 CLR
Lo Temps de Massalio
Compliments of Weather Underground - 1.25 mb